Tracking 17632 objects as of 1-May-2016
HD Live streaming from Space Station
objects crossing your sky now

CZ-2D DEB

Track CZ-2D DEB now!
10-day predictions


NORAD ID: 28742
Int'l Code: 2005-024F
Perigee: 522.2 km
Apogee: 694.6 km
Inclination: 97.6 °
Period: 96.7 minutes
Semi major axis: 6979 km
RCS: 0.0146 m2 (small)
Launch date: July 5, 2005
Source: People's Republic of China (PRC)
Launch site: Jiuquan Satellite Launch Center, China (JSC)

Note: This is SATELLITE DEBRIS
Your satellite tracking list
Your tracking list is empty





NASA's NSSDC Master Catalog

Two Line Element Set (TLE):
1 28742U 05024F   16122.41474122  .00007369  00000-0  68512-3 0  9991
2 28742  97.6421 287.9458 0123489 145.1039 215.8354 14.88944742575755
Source of the keplerian elements: AFSPC

N2YO: 467